Home > Weather > Saint-Georges > Past weeks

Flag for Canada Past Weather in Saint-Georges, Quebec, Canada — Yesterday and Last 2 Weeks

Now
54 °F

Cool.


Feels Like: 54 °F
Forecast: 51 / 74 °F
Wind: 2 mph from Southeast

Location: Beauceville

Current Time: Aug 30, 2016 at 1:17:57 AM

Latest Report: Aug 30, 2016 at 12:00 AM


Visibility: N/A

Pressure: 30.14 "Hg

Humidity: 90%

Dew Point: 51 °F

Location of Saint-GeorgesLocation

Past Weather in Saint-Georges — Graph

°F

Saint-Georges Temperature Yesterday

Maximum temperature yesterday: 69 °F (at 4:00 PM)
Minimum temperature yesterday: 56 °F (at 11:00 PM)
Average temperature yesterday: 65 °F

High & Low Weather Summary for the Past Weeks

 TemperatureHumidityPressure
High81 °F (Aug 26, 2:00 PM)100% (Aug 15, 12:00 AM)30.28 "Hg (Aug 15, 12:00 AM)
Low47 °F (Aug 23, 4:00 AM)39% (Aug 20, 2:00 PM)29.74 "Hg (Aug 22, 4:00 AM)
Average66 °F78%30.01 "Hg
* Reported Aug 15 12:00 AM — Aug 30 12:00 AM, Saint-Georges, Weather by CustomWeather, © 2016

Note: Actual official high and low records may vary slightly from our data, if they occured in-between our weather recording intervals... More about our weather records

Advertising

Saint-Georges Weather History for the Previous 24 Hours

Scroll right to see more
 ConditionsComfort  
Time TempWeatherWind HumidityBarometerVisibility
12:00 AM
Tue, Aug 30
54 °FCool.2 mph90%30.14 "HgN/A
11:00 PM
Mon, Aug 29
56 °FCool.1 mph87%30.14 "HgN/A
10:00 PM58 °FCool.1 mph85%30.13 "HgN/A
9:00 PM60 °FCool.1 mph78%30.13 "HgN/A
8:00 PM60 °FCool.2 mph76%30.12 "HgN/A
7:00 PM66 °FMild.5 mph65%30.10 "HgN/A
6:00 PM68 °FMild.3 mph59%30.10 "HgN/A
5:00 PM68 °FMild.3 mph60%30.08 "HgN/A
4:00 PM69 °FMild.6 mph56%30.07 "HgN/A
3:00 PM69 °FMild.6 mph56%30.07 "HgN/A
2:00 PM68 °FMild.7 mph65%30.06 "HgN/A
1:00 PM64 °FMild.7 mph75%30.05 "HgN/A
12:00 PM65 °FMild.6 mph71%30.03 "HgN/A
11:00 AM66 °FMild.6 mph72%30.01 "HgN/A
10:00 AM66 °FMild.7 mph71%30.00 "HgN/A
9:00 AM64 °FMild.9 mph77%29.99 "HgN/A
8:00 AM63 °FMild.8 mph83%29.98 "HgN/A
7:00 AM63 °FMild.6 mph91%29.97 "HgN/A
6:00 AM65 °FMild.5 mph96%29.96 "HgN/A
5:00 AM66 °FMild.5 mph97%29.95 "HgN/A
4:00 AM67 °FMild.2 mph99%29.94 "HgN/A
3:00 AM67 °FMild.2 mph100%29.94 "HgN/A
2:00 AM68 °FMild.3 mph98%29.95 "HgN/A
1:00 AM68 °FMild.3 mph98%29.94 "HgN/A
Weather by CustomWeather, © 2016

See weather overviewHow to use our weather pages